Regional Weather Roundup
Issued by NWS Jackson, KY

Home | Current Version | Previous Version | Text Only | Print | Product List | Glossary On
Versions: 1 2 3 4 5 6 7 8 9 10 11 12 13 14 15 16 17 18 19 20 21 22 23 24 25 26 27 28 29 30 31 32 33 34 35 36 37 38 39 40 41 42 43 44 45 46 47 48 49 50
000
ASUS43 KJKL 232310
RWRJKL

EAST KENTUCKY HOURLY WEATHER ROUNDUP
NATIONAL WEATHER SERVICE JACKSON KY
600 PM EST THU NOV 23 2017

NOTE: "FAIR" INDICATES FEW OR NO CLOUDS BELOW 12,000 FEET WITH
NO SIGNIFICANT WEATHER AND/OR OBSTRUCTIONS TO VISIBILITY.

* THESE REPORTS ARE NOT UNDER NWS QUALITY CONTROL AND MAY NOT
  REPORT WEATHER SUCH AS PRECIPITATION AND FOG.

KYZ079-080-083-085-087-088-110-112-115-119-120-240000
...EASTERN KENTUCKY...

CITY           SKY/WX    TMP DP  RH WIND       PRES   REMARKS
JACKSON        CLEAR     45  19  35 CALM      30.03S
LONDON         CLEAR     44  22  41 CALM      30.04R
SOMERSET*      CLEAR     41  23  48 CALM      30.06S
MONTICELLO*    CLEAR     37  28  70 N8        30.06R WCI  31
WILLIAMSBURG*  CLEAR     46  19  34 N5        30.03S
MIDDLESBORO*   CLEAR     42  31  65 CALM      30.03S
HARLAN APT*    CLEAR     46  18  31 CALM      30.02S
PIKE CO APT*     N/A     43  21  42 N3        30.03S
BIG SANDY APT* CLEAR     42  24  47 CALM      30.04S
MOREHEAD APT*  CLEAR     43  19  39 CALM      30.06R
$$

KYZ035-036-041-042-044-050-067-078-099-240000
...CENTRAL KENTUCKY...

CITY           SKY/WX    TMP DP  RH WIND       PRES   REMARKS
MT STERLING*   CLEAR     41  23  48 CALM      30.05S
DANVILLE*      CLEAR     37  27  65 CALM      30.05S
LEXINGTON      CLEAR     44  21  40 CALM      30.04S
FRANKFORT      CLEAR     40  23  50 CALM      30.02F
LOUISVILLE     CLEAR     45  25  45 SE3       30.03S
LEBANON*         N/A     41  21  45 CALM      30.04S HAZE
GLASGOW*       CLEAR     40  26  57 CALM      30.04S
BOWLING GREEN  CLEAR     46  24  42 S3        30.05S
$$

KYZ091>093-OHZ055-061-077-WVZ005-015-034-035-042-240000
...SOUTHERN OHIO/WEST VIRGINIA...

CITY           SKY/WX    TMP DP  RH WIND       PRES   REMARKS
COVINGTON      CLEAR     41  24  51 S5        30.02S
COLUMBUS       PTCLDY    38  25  59 SE3       30.03S
DAYTON         CLEAR     36  25  64 S6        30.01F WCI  31
WILMINGTON     CLEAR     35  27  72 S3        30.02F
HUNTINGTON     CLEAR     41  23  48 CALM      30.05S
CHARLESTON     CLEAR     40  21  46 CALM      30.04F
PINEVILLE*     CLEAR     33  25  71 MISG      30.06F
BECKLEY        CLEAR     38  17  42 CALM      30.00S
BLUEFIELD      CLEAR     42   9  25 CALM      30.01R
LOGAN CO APT*    N/A     43  21  42 CALM      30.02S
$$

VAZ002-007-008-TNZ017-027-036-066-071-240000
...SOUTHWEST VIRGINIA/EAST TENNESSEE...

CITY           SKY/WX    TMP DP  RH WIND       PRES   REMARKS
WISE*          CLEAR     43  21  42 CALM      30.02S
JONESVILLE*      N/A     41  32  70 CALM      30.04S
ABINGDON*      CLEAR     46  32  57 CALM      30.01S
BRISTOL        PTCLDY    46  32  58 NW5       30.01S
MORRISTOWN*    PTCLDY    48  30  49 CALM      30.01S
SEVIERVILLE*   CLEAR     48  32  53 CALM      30.02R
KNOXVILLE      CLEAR     51  34  52 CALM      30.01S
LAFOLLETTE*    CLEAR     43  32  65 CALM      30.05S
OAK RIDGE      CLEAR     48  34  58 CALM      30.03S
CROSSVILLE     CLEAR     46  29  51 NW3       30.01S
NASHVILLE      CLEAR     48  17  29 CALM      30.04S
$$

...KEY TO REMARKS...
VSB - VISIBILITY IN MILES
WCI - WIND CHILL INDEX
HX  - HEAT INDEX

$$



USA.gov is the U.S. government's official web portal to all federal, state and local government web resources and services.